GW4079 Weather Reports


Display with metric or nautical units.
time (UTC)temp
F
wind
direction
speed
MPH
gust
MPH
rain 1hr
in
rain 24hr
in
rain mn
in
humidity
%
barometer
mb
20260504050104 54 87 20.0 28.0 0.00 0.00 0.00 37 1011.4
20260504044553 55 80 22.0 31.0 0.00 0.00 0.00 36 1010.9
20260504043110 55 70 11.0 20.0 0.00 0.00 0.00 41 1010.1
20260504041557 56 57 9.0 13.0 0.00 0.00 0.00 39 1009.9
20260504040055 57 57 9.0 13.0 0.00 0.00 0.00 38 1009.4
20260504034549 58 57 11.0 14.0 0.00 0.00 0.00 36 1009.0
20260504033111 59 71 11.0 15.0 0.00 0.00 0.00 35 1008.7
20260504031604 60 61 12.0 16.0 0.00 0.00 0.00 34 1008.5
20260504030101 60 55 12.0 18.0 0.00 0.00 0.00 32 1008.1
20260504024602 62 59 10.0 16.0 0.00 0.00 0.00 29 1008.1
20260504023100 64 49 13.0 18.0 0.00 0.00 0.00 27 1008.2
20260504021555 66 31 6.0 12.0 0.00 0.00 0.00 23 1008.0
20260504020058 67 32 10.0 15.0 0.00 0.00 0.00 21 1008.0
20260504014546 69 34 10.0 18.0 0.00 0.00 0.00 20 1008.2
20260504013103 70 11 12.0 17.0 0.00 0.00 0.00 19 1008.1
20260504011551 71 5 12.0 18.0 0.00 0.00 0.00 19 1008.0
20260504010056 72 19 14.0 21.0 0.00 0.00 0.00 19 1008.2
20260504004611 72 34 13.0 21.0 0.00 0.00 0.00 19 1008.4
20260504003100 73 352 17.0 23.0 0.00 0.00 0.00 18 1008.5
20260504001549 73 22 14.0 21.0 0.00 0.00 0.00 19 1008.7
20260504000045 74 12 14.0 20.0 0.00 0.00 0.00 19 1008.6
20260503234604 74 5 15.0 26.0 0.00 0.00 0.00 19 1008.8
20260503233110 73 26 10.0 24.0 0.00 0.00 0.00 19 1008.7
20260503231557 74 346 14.0 19.0 0.00 0.00 0.00 19 1008.8
20260503230115 75 348 16.0 21.0 0.00 0.00 0.00 17 1008.8
20260503224555 74 15 15.0 21.0 0.00 0.00 0.00 19 1009.1
20260503223059 74 321 11.0 21.0 0.00 0.00 0.00 19 1008.9
20260503221557 74 336 17.0 23.0 0.00 0.00 0.00 18 1009.2
20260503220103 74 349 10.0 16.0 0.00 0.00 0.00 19 1009.5
20260503214606 74 25 14.0 20.0 0.00 0.00 0.00 19 1009.6
20260503213104 73 5 10.0 21.0 0.00 0.00 0.00 18 1009.7
20260503211606 73 352 15.0 22.0 0.00 0.00 0.00 18 1010.1
20260503210058 74 338 14.0 21.0 0.00 0.00 0.00 19 1010.3
20260503204819 74 26 14.0 21.0 0.00 0.00 0.00 18 1010.4
20260503203110 73 5 12.0 22.0 0.00 0.00 0.00 18 1010.6
20260503201810 73 350 12.0 21.0 0.00 0.00 0.00 16 1010.9
20260503200111 73 301 15.0 22.0 0.00 0.00 0.00 18 1010.8
20260503194542 72 277 11.0 20.0 0.00 0.00 0.00 19 1011.1
20260503193054 73 347 9.0 19.0 0.00 0.00 0.00 19 1011.4
20260503191544 71 290 10.0 21.0 0.00 0.00 0.00 20 1011.6
20260503190051 72 346 15.0 23.0 0.00 0.00 0.00 19 1011.8
20260503184602 70 330 13.0 22.0 0.00 0.00 0.00 21 1011.8
20260503183043 71 261 9.0 20.0 0.00 0.00 0.00 22 1012.1
20260503181549 71 306 18.0 23.0 0.00 0.00 0.00 21 1012.2
20260503180057 71 326 15.0 22.0 0.00 0.00 0.00 22 1012.5
20260503174602 70 327 10.0 22.0 0.00 0.00 0.00 23 1012.8
20260503173047 71 338 13.0 24.0 0.00 0.00 0.00 23 1012.9
20260503171537 69 313 9.0 17.0 0.00 0.00 0.00 26 1013.1
20260503130108 48 309 4.0 10.0 0.00 0.00 0.00 71 1014.1
20260503110108 41 320 0.0 0.0 0.00 0.00 0.00 77 1015.1
20260503081547 45 44 0.0 0.0 0.00 0.00 0.00 69 1015.8
20260503071554 46 360 0.0 0.0 0.00 0.00 0.00 66 1016.0